Regional Weather Roundup
Issued by NWS

Home | Current Version | Previous Version | Graphics & Text | Print | Product List | Glossary On
Versions: 1 2 3 4 5 6 7 8 9 10 11 12 13 14 15 16 17 18 19 20 21 22 23 24 25 26 27
000
ASUS45 KBOU 241507
RWRCO

WEATHER ROUNDUP FOR COLORADO
NATIONAL WEATHER SERVICE DENVER/BOULDER CO
900 AM MDT MON JUL 24 2017

NOTE: "FAIR" INDICATES FEW OR NO CLOUDS BELOW 12000 FEET WITH NO
SIGNIFICANT WEATHER AND/OR OBSTRUCTIONS TO VISIBILITY.

COZ001>005-013-030-031-241600-
...NORTHWEST COLORADO...

CITY           SKY/WX    TMP DP  RH WIND       PRES   REMARKS
CRAIG          FAIR      67  47  48 CALM      30.23R
HAYDEN         FAIR      66  41  39 E7        30.25S
MEEKER         FAIR      69  45  41 CALM      30.25S
RABBIT EARS PA FAIR      59  39  47 CALM      30.55S
STEAMBOAT SPGS FAIR      65  44  46 CALM      30.28S
WALDEN         FAIR      63  45  51 S3        30.37S
$$

COZ006>008-011-241600-
...WEST CENTRAL VALLEYS...

CITY           SKY/WX    TMP DP  RH WIND       PRES   REMARKS
GRAND JUNCTION FAIR      78  49  35 SE20      30.13S
MONTROSE       FAIR      73  50  44 CALM      30.22F
EAGLE          SUNNY     63  45  51 CALM      30.32R
RIFLE          FAIR      71  48  43 VRB3      30.21R
DELTA          FAIR      77  46  33 E7        30.20R
NUCLA          NOT AVBL
$$

COZ017>023-064>068-241600-
...SOUTHWEST COLORADO...

CITY           SKY/WX    TMP DP  RH WIND       PRES   REMARKS
DURANGO        FAIR      66  53  63 SW3       30.29S
CORTEZ         FAIR      69  59  70 SE5       30.25R
PAGOSA SPRINGS FAIR      67  49  51 CALM      30.38S
TELLURIDE      CLOUDY    62  47  59 S3        30.47S
WOLF CREEK PAS FAIR      50  45  81 SW5       30.71R
$$

COZ009-010-012-014-032>034-037-058>063-241600-
...CENTRAL COLORADO...

CITY           SKY/WX    TMP DP  RH WIND       PRES   REMARKS
ASPEN          FAIR      67  45  45 CALM      30.34S
BUENA VISTA    FAIR      63  45  52 N3        30.38S
COPPER MTN     FAIR      59  39  47 W3        30.68R
BERTHOUD PASS  FAIR      46  34  61 NW14G20   30.71R
COTTONWOOD PAS FAIR      63  43  48 E6        30.50F
GUNNISON       FAIR      60  48  64 VRB3      30.40F
KREMMLING      FAIR      66  45  45 CALM      30.36S
LEADVILLE      FAIR      57  39  51 CALM      30.50S
MONARCH PASS   FAIR      52  41  66 W16       30.77R
SALIDA         FAIR      65  50  57 N8        30.41F
SUNLIGHT       FAIR      55  41  58 SW8       30.60R
WILKERSON PASS FAIR      52  39  62 W8        30.63R
$$

COZ069>075-241600-
...SAN LUIS VALLEY/SANGRE DE CRISTO MOUNTAINS...

CITY           SKY/WX    TMP DP  RH WIND       PRES   REMARKS
ALAMOSA        FAIR      62  51  67 SE5       30.36R
DEL NORTE      FAIR      64  46  51 E6        30.39R
LA VETA PASS   NOT AVBL
SAGUACHE         N/A    N/A N/A N/A MISG        N/A
$$

COZ035-036-038>040-241600-
...NORTHERN COLORADO FRONT RANGE...

CITY           SKY/WX    TMP DP  RH WIND       PRES   REMARKS
DENVER INTL AP FAIR      82  50  32 SW12      30.10R
DMNS CITY PARK   N/A     79  50  36 W2        30.10F
AURORA         MOSUNNY   78  54  43 SW9       30.12S
FRONT RANGE AP FAIR      82  48  30 SW14      30.12S
ERIE MUNI ARPT FAIR      74  49  40 NW5       30.09S
BOULDER MUN AP FAIR      75  46  35 CALM      30.10S
CENTENNIAL     FAIR      80  47  31 SW12      30.14S
BROOMFIELD     FAIR      75  48  38 N6        30.13S
FORT COLLINS   FAIR      74  55  51 N6        30.09S
LONGMONT       FAIR      79  48  33 CALM      30.10S
$$

COZ041-046-047-076>085-087-088-241600-
...PIKES PEAK/PALMER DIVIDE AND SOUTHERN FOOTHILLS...

CITY           SKY/WX    TMP DP  RH WIND       PRES   REMARKS
COLO. SPRINGS  FAIR      71  56  58 E3        30.22R
A. F. ACADEMY  FAIR      71  56  58 CALM      30.21F
SCHRIEVER AFB  FAIR      70  54  57 SE8       30.21S
CHEYENNE MTN   FAIR      68  56  64 N5        30.20R
ELLICOTT       FAIR     N/A N/A N/A S9        30.19S
FALCON           N/A     69  53  57 S7        30.27R
FORT CARSON    FAIR      70  57  64 N3        30.18S
LIMON          FAIR      75  61  61 S15       30.15F
MONUMENT HILL  FAIR      72  52  49 SW9       30.26S
CANON CITY     SUNNY     79  55  44 MISG      30.15S
WALSENBURG     FAIR      82  48  30 W9        30.20F
TRINIDAD       FAIR      75  52  44 SW3       30.20S
$$

COZ042>045-048>051-090-091-241600-
...NORTHEAST COLORADO...

CITY           SKY/WX    TMP DP  RH WIND       PRES   REMARKS
GREELEY ARPT   FAIR      74  59  59 W6        30.07S
AKRON          FAIR      81  58  45 S16       30.08S
BURLINGTON     FAIR      81  64  56 S15       30.10F
WRAY           NOT AVBL
YUMA           NOT AVBL
STERLING       FAIR      79  63  57 SW10      30.02F
HOLYOKE        FAIR      81  64  57 S12G17    30.05S
FORT MORGAN    FAIR      82  55  39 S9        30.06F
$$

COZ086-089-092>099-241600-
...SOUTHEAST COLORADO...

CITY           SKY/WX    TMP DP  RH WIND       PRES   REMARKS
PUEBLO         FAIR      73  57  57 CALM      30.11S
LA JUNTA       FAIR      78  62  57 S3        30.09S
LAMAR          FAIR      83  63  50 SW12      30.06F
SPRINGFIELD      N/A     79  62  56 S10       30.12S
$$




USA.gov is the U.S. government's official web portal to all federal, state and local government web resources and services.